LogoCoinalyze
    Ad-Free Version Hauptseite Märkte Finanzierungsraten
    Futures-Daten
    • Aggregierte Daten (Coins)
    • Einzelne Charts
    • Globale Charts
    Preisalarme
    TA
    Bitcoin Ethereum BNB Ripple Tron ZCash Dogecoin Monero UNUS SED LEO Chainlink Cardano Stellar Lumens Bitcoin Cash Litecoin Hedera Cronos Polkadot Ethereum Classic Algorand Quant Cosmos VeChain Dash Bitcoin SV BitTorrent Terra Decred Tezos Iota The Graph THETA Decentraland NEO Chiliz MultiversX Golem Basic Attention Token Horizen Qtum 0x DigiByte Beam FTX Token RIF Token Holo FUNToken Zilliqa Ontology Nano aelf Enjin Coin Ravencoin Mask Network Siacoin Verge Status WINk Waves IoTeX iExec RLC Power Ledger Steem Kyber Network Crystal Lisk Ark Ardor IOST WOO Network WAX Icon Storj Loopring Wanchain Bitcoin Diamond AdEx Bitcoin Gold Augur OmiseGO NEM MonaCoin BitShares Ren Komodo V Systems Nuls Mithril SOLVE Maker EOS Aion Nebulas HedgeTrade Bread Fetch.ai TomoChain Polygon Fantom Waltonchain GXChain Bytom Metaverse ETP MaidSafeCoin QASH
    Bestellen nach:
    Mehr
    • API
    • Kerzenformationen
    • Spenden
    • Kontakt
    • Sitemap
    • Privacy Policy
    • Disclaimer
    • Theme:
    Deutsch
    • English
    • Français
    • Русский
    • Türkçe
    • Nederlands
    • Português (BR)
    • Español
    • 한국어
    • 简体中文
    • 日本語
     
    Anmelden / Registrieren
    Markets/ Pepe/ PEPE zu USDT/ PEPEUSDT Bybit
    Trades
    WL
    Chat
    Stat
    Neuigkeiten
    ⦷
    AAA
    0.0000034110 3089094.00000000 13:56:13
    0.0000034130 49828100.00000000 13:56:08
    0.0000034120 99484205.00000000 13:56:04
    0.0000034120 53058243.00000000 13:56:04
    0.0000034110 25725600.00000000 13:55:50
    0.0000034120 25800000.00000000 13:55:46
    0.0000034110 12245642.00000000 13:55:40
    0.0000034100 13554358.00000000 13:55:40
    0.0000034100 46700838.00000000 13:55:32
    0.0000034100 70029429.00000000 13:55:30
    0.0000034100 794071.00000000 13:55:30
    0.0000034120 25734483.00000000 13:55:22
    0.0000034120 82.00000000 13:55:16
    0.0000034120 2789100.00000000 13:55:15
    0.0000034130 57.00000000 13:55:15
    0.0000034130 33138713.00000000 13:55:15
    0.0000034130 2195872.00000000 13:55:15
    0.0000034130 2196515.00000000 13:55:15
    0.0000034140 42769974.00000000 13:55:14
    0.0000034140 63513679.00000000 13:55:14
    0.0000034140 109687500.00000000 13:55:14
    0.0000034150 17.00000000 13:55:13
    0.0000034150 212445400.00000000 13:55:13
    0.0000034150 8491947.00000000 13:54:38
    0.0000034170 70480995.00000000 13:54:04
    0.0000034210 43397022.00000000 13:53:20
    0.0000034210 31172533.00000000 13:53:20
    0.0000034210 2193945.00000000 13:53:20
    0.0000034210 2193304.00000000 13:53:20
    0.0000034210 109687500.00000000 13:53:20
    0.0000034200 793276.00000000 13:53:20
    0.0000034190 70480900.00000000 13:53:02
    0.0000034180 109687500.00000000 13:52:35
    0.0000034180 2193300.00000000 13:52:32
    0.0000034150 68517474.00000000 13:52:22
    0.0000034140 702884757.00000000 13:52:17
    0.0000034150 62758741.00000000 13:52:17
    0.0000034140 189751235.00000000 13:52:17
    0.0000034140 2195872.00000000 13:52:17
    0.0000034140 534980745.00000000 13:52:17
    0.0000034140 115076337.00000000 13:52:17
    0.0000034140 234761977.00000000 13:52:17
    0.0000034140 702884757.00000000 13:52:17
    0.0000034140 109687500.00000000 13:52:17
    0.0000034150 62758741.00000000 13:52:17
    0.0000034150 62758741.00000000 13:52:17
    0.0000034140 702884757.00000000 13:52:16
    0.0000034140 109687500.00000000 13:52:16
    0.0000034150 62758741.00000000 13:52:16
    0.0000034140 416289748.00000000 13:52:13
    0.0000034140 115076337.00000000 13:52:13
    0.0000034140 400301328.00000000 13:52:13
    0.0000034140 2195872.00000000 13:52:13
    0.0000034140 109687500.00000000 13:52:13
    0.0000034140 397588762.00000000 13:52:12
    0.0000034140 115076337.00000000 13:52:12
    0.0000034140 341999554.00000000 13:52:12
    0.0000034140 702884757.00000000 13:52:12
    0.0000034140 109687500.00000000 13:52:12
    0.0000034140 2195872.00000000 13:52:12
    0.0000034150 62758741.00000000 13:52:12
    0.0000034150 62758741.00000000 13:52:11
    0.0000034150 62749286.00000000 13:52:10
    0.0000034150 9414.00000000 13:52:10
    0.0000034150 62749327.00000000 13:52:10
    0.0000034120 256859006.00000000 13:52:08
    0.0000034120 115076337.00000000 13:52:08
    0.0000034120 583175390.00000000 13:52:08
    0.0000034120 109687500.00000000 13:52:08
    0.0000034130 62758741.00000000 13:52:08
    0.0000034120 109687500.00000000 13:52:07
    0.0000034120 62758741.00000000 13:52:07
    0.0000034110 2197803.00000000 13:52:05
    0.0000034110 115076337.00000000 13:52:05
    0.0000034110 234019997.00000000 13:52:05
    0.0000034110 583175390.00000000 13:52:05
    0.0000034110 109687500.00000000 13:52:05
    0.0000034120 62758741.00000000 13:52:05
    0.0000034110 25866936.00000000 13:52:05
    0.0000034080 62758741.00000000 13:51:43
    0.0000034080 109687500.00000000 13:51:43
    0.0000034080 118952700.00000000 13:50:51
    0.0000034100 33159941.00000000 13:50:34
    0.0000034100 722852.00000000 13:50:34
    0.0000034100 794071.00000000 13:50:34
    0.0000034110 62758741.00000000 13:50:17
    0.0000034110 41157792.00000000 13:50:17
    0.0000034120 2197159.00000000 13:50:13
    0.0000034120 72216940.00000000 13:50:06
    0.0000034110 15370296.00000000 13:49:54
    0.0000034110 43272132.00000000 13:49:54
    0.0000034110 14639506.00000000 13:49:49
    0.0000034110 119043769.00000000 13:49:46
    0.0000034120 14654161.00000000 13:49:29
    0.0000034120 51384700.00000000 13:49:23
    0.0000034120 13398247.00000000 13:49:22
    0.0000034120 96289253.00000000 13:49:22
    0.0000034120 72216940.00000000 13:49:19
    0.0000034150 63177621.00000000 13:49:12
    0.0000034140 63513600.00000000 13:49:10
    Abmelden
    AAA
    Hilfe
    🙂 🤣 😎 🤗 😛 😉 😜 🤑 🤔 😑 😴 😕 🙃 😲 😇 🙁 😢 😬 😟 😠 🕺 🏃 💪 ✌ 👌 👍 👎 👏 👋 🤝 🍺 🍻 🐋 🐟 🦈 🗽 🚄 ✈ 🛑 🚀 🏦 🌚 ⭐ 🌞 ⚡ 🏆 💰 💲 🔨 ❓ ❗ 💯 🔶 🏁
    ☺
    Anmelden oder Registrieren zum Chatten
    24 Stunden
    Veränderung
    -3.15%
    Volumen
    1,096,474,269,219
    Hoch
    0.0000035500
    Tief
    0.0000033730
    7 Tage
    Veränderung
    -10.71%
    Volumen
    10,140,159,932,036
    Hoch
    0.0000040160
    Tief
    0.0000033640
    30 Tage
    Veränderung
    +17.30%
    Volumen
    49,760,643,863,490
    Hoch
    0.0000045550
    Tief
    0.0000025300
    Pepe price rallies 25% as whale demand and futures interest surge
    Key takeaways Pepe has gained 25% this week, including a combined 22% advance over the previous two days. Seven whale transactions worth more than $1 million each occurred Thursday, the highest...
    coinjournal.net
    Aug 21, 2026 08:41
    PEPE Supply on Exchanges Just Took a Massive Hit – What’s Next?
    A drop in PEPE exchange balances has added to bullish expectations despite muted trader interest.
    cryptopotato.com
    Aug 6, 2026 20:02
    PEPE Exchange Outflows Hit Nearly 2-Year High as Whales Accumulate
    Pepe (PEPE) recorded its largest single-day exchange outflow since November 2024, with 4.54 trillion tokens leaving trading platforms, signaling that holders are moving supply away from immediate...
    beincrypto.com
    Aug 6, 2026 04:57
    Meme Coin Based on White House Shooter Conspiracy Rallies 320%
    $HENRY surged 300% after a 2023 Pepe tweet appeared to name the White House shooter, fueling a viral time-travel meme. The post Meme Coin Based on White House Shooter Conspiracy Rallies 320%...
    beincrypto.com
    Apr 27, 2026 16:11
    PEPE surges 4% as market sentiment improves, eyes Key resistance breakout
    Key takeaways Pepe extends gains on Wednesday, stretching its rally from the 50-day EMA. Derivatives data show heightened retail activity as risk-on sentiment returns to the market. Pepe (PEPE) is...
    coinjournal.net
    Apr 22, 2026 11:44
    Why The PEPE Price Could Stage A 55X Rally To Reach New $0.0001 ATH
    The PEPE price has now started to edge back into bullish conversations after the recent inflows into the crypto market. The last time PEPE’s weekly chart printed the kind of structure now...
    newsbtc.com
    Apr 21, 2026 15:30
    Pepe (PEPE) surges 9%, drawing interest from whales
    Key takeaways PEPE is up 9% in the last 24 hours, making it one of the best performers among the top 50 cryptocurrencies by market cap. The rally comes amid renewed interest from whales and retail...
    coinjournal.net
    Apr 16, 2026 07:40
    Murad Says SPX6900 (SPX) Is Primed for a Rally — Is He Right This Time?
    Crypto influencer Murad Mahmudov claims SPX6900 (SPX) is stabilizing at the same market cap level where Dogecoin (DOGE) and Pepe (PEPE) consolidated before their explosive rallies. The...
    beincrypto.com
    Apr 5, 2026 21:36
    The Shiba Inu Of This Cycle: Analyst Shares Why It Is Better To Buy PEPE Now
    In the bull market cycle of 2021-2022, the Shiba Inu meme coin made waves in a way that changed the face of meme coins forever. This came after Dogecoin’s initial 36,000% rally, and Shiba Inu...
    newsbtc.com
    Apr 4, 2026 07:30
    PEPE Explodes by 18% Amid Altcoin Rally, BTC Tapped $74K: Market Watch
    The frog-themed meme coin is today's biggest gainer, followed by TAO, DOT, and BONK.
    cryptopotato.com
    Mar 16, 2026 10:56
    Should PEPE traders brace for volatility as short squeeze potential builds?
    The memecoin market has seen its collective market capitalization drop by 48% over the past year, and 6.9% over the past month, according to CoinMarketCap. According to Glassnode, the memecoin...
    ambcrypto.com
    Mar 7, 2026 18:00
    Geben Sie einfach das Kommando im Chat ein. Ersetzen Sie dabei nick1 durch den jeweiligen Nick.
    • /ignore nick1 Einen Chat-User ignorieren
    • /unignore nick1 Einen Chat-User nicht mehr ignorieren
    • /ignorelist Ignorierte Chat-User anzeigen